VKG517 LTAI-ESSA

Flight info

Callsign VKG517
Flight time N/A
Altitude 34000
Route OSVEL UL619 MAKOL L619 ARGES DCT MOBRA DCT KARIL DCT KENIN DCT KEFIR DCT SOMOX DCT BOKSU DCT GOJOM DCT MIRMA N616 NEKET DCT TOMBU N616 XILAN
Aircraft A321/M-SDE3FGHIRWY/LB1

Departure

Time N/A
Airport Antalya International Airport (LTAI)

Arrival

Time 2026-05-04 11:31
Airport Stockholm-Arlanda Airport (ESSA)
Time Latitude Longitude Altitude Speed Heading
2026-05-04 10:57 57.39701 21.36484 33826 ft 442 kts 328°
2026-05-04 10:58 57.42499 21.34120 33818 ft 442 kts 328°
2026-05-04 10:58 57.48095 21.29394 33798 ft 442 kts 328°
2026-05-04 10:59 57.53689 21.24656 33811 ft 442 kts 328°
2026-05-04 10:59 57.59267 21.19905 33779 ft 442 kts 328°
2026-05-04 11:00 57.64870 21.15133 33762 ft 442 kts 328°
2026-05-04 11:02 57.86976 20.96107 33787 ft 443 kts 327°
2026-05-04 11:05 58.28025 20.60037 33741 ft 446 kts 327°
2026-05-04 11:06 58.33614 20.54803 33741 ft 443 kts 324°
2026-05-04 11:06 58.38970 20.49042 33743 ft 441 kts 322°
2026-05-04 11:10 58.76531 20.08270 32621 ft 442 kts 322°
2026-05-04 11:12 58.95262 19.87714 27982 ft 435 kts 323°
2026-05-04 11:12 58.97878 19.84822 27434 ft 431 kts 322°
2026-05-04 11:12 59.00499 19.81912 26860 ft 427 kts 322°
2026-05-04 11:12 59.03065 19.79059 26320 ft 423 kts 323°
2026-05-04 11:13 59.05604 19.76236 25777 ft 419 kts 323°
2026-05-04 11:13 59.08122 19.73432 25254 ft 415 kts 323°
2026-05-04 11:13 59.10615 19.70648 24737 ft 412 kts 323°
2026-05-04 11:13 59.13088 19.67882 24225 ft 408 kts 323°
2026-05-04 11:14 59.15537 19.65136 23712 ft 405 kts 323°
2026-05-04 11:14 59.17968 19.62406 23199 ft 401 kts 323°
2026-05-04 11:14 59.20380 19.59700 22603 ft 398 kts 323°
2026-05-04 11:16 59.36571 19.41308 19111 ft 365 kts 319°
2026-05-04 11:16 59.38520 19.38343 18986 ft 346 kts 311°
2026-05-04 11:16 59.40232 19.35130 18679 ft 337 kts 308°
2026-05-04 11:17 59.41876 19.31884 18282 ft 334 kts 308°
2026-05-04 11:17 59.43504 19.28647 17810 ft 333 kts 308°
2026-05-04 11:19 59.54689 19.06022 14363 ft 325 kts 308°
2026-05-04 11:19 59.56256 19.02805 13893 ft 324 kts 308°
2026-05-04 11:19 59.57813 18.99597 13427 ft 323 kts 308°
2026-05-04 11:19 59.59363 18.96388 12920 ft 322 kts 308°
2026-05-04 11:20 59.60903 18.93179 12417 ft 321 kts 308°
2026-05-04 11:20 59.62431 18.89966 11919 ft 320 kts 308°
2026-05-04 11:20 59.63945 18.86751 11430 ft 319 kts 308°
2026-05-04 11:20 59.65442 18.83535 10945 ft 317 kts 308°
2026-05-04 11:22 59.73927 18.61448 8023 ft 260 kts 280°
2026-05-04 11:22 59.74262 18.57924 7641 ft 259 kts 277°
2026-05-04 11:23 59.74555 18.54418 7259 ft 257 kts 277°
2026-05-04 11:23 59.74858 18.50932 6882 ft 256 kts 278°
2026-05-04 11:24 59.76992 18.30421 5182 ft 250 kts 280°
2026-05-04 11:25 59.77361 18.27003 4889 ft 250 kts 280°
2026-05-04 11:25 59.77720 18.23689 4591 ft 248 kts 280°
2026-05-04 11:25 59.78088 18.20309 4249 ft 247 kts 280°
2026-05-04 11:26 59.78802 18.13704 3547 ft 242 kts 280°
2026-05-04 11:27 59.75300 17.99680 2243 ft 169 kts 194°
2026-05-04 11:28 59.74170 17.99272 2017 ft 159 kts 195°
2026-05-04 11:28 59.73103 17.98883 1805 ft 157 kts 195°
2026-05-04 11:28 59.72018 17.98486 1590 ft 156 kts 195°
2026-05-04 11:28 59.70957 17.98099 1374 ft 154 kts 195°
2026-05-04 11:29 59.69927 17.97725 1168 ft 146 kts 195°
2026-05-04 11:29 59.68929 17.97362 959 ft 140 kts 195°
2026-05-04 11:29 59.67982 17.97006 739 ft 139 kts 193°
2026-05-04 11:29 59.67018 17.96659 558 ft 140 kts 192°
2026-05-04 11:31 59.63251 17.94937 124 ft 13 kts 308°
2026-05-04 11:33 59.64125 17.95208 107 ft 29 kts 10°
2026-05-04 11:33 59.64325 17.95280 106 ft 29 kts 10°
2026-05-04 11:33 59.64521 17.95350 105 ft 28 kts 10°
2026-05-04 11:34 59.64713 17.95421 106 ft 27 kts 11°
2026-05-04 11:34 59.64893 17.95488 108 ft 25 kts 11°
2026-05-04 11:34 59.65051 17.95508 115 ft 21 kts 351°
2026-05-04 11:34 59.65203 17.95432 119 ft 24 kts 345°
2026-05-04 11:35 59.65381 17.95336 126 ft 29 kts 345°
2026-05-04 11:35 59.65559 17.95242 128 ft 23 kts 345°
2026-05-04 11:35 59.65707 17.95158 124 ft 19 kts 337°
2026-05-04 11:35 59.65743 17.94969 125 ft 16 kts 257°
2026-05-04 11:36 59.65709 17.94709 123 ft 22 kts 255°
2026-05-04 11:36 59.65673 17.94413 123 ft 22 kts 256°
2026-05-04 11:36 59.65635 17.94120 122 ft 23 kts 255°
2026-05-04 11:36 59.65593 17.93786 114 ft 27 kts 256°
2026-05-04 11:37 59.65547 17.93423 112 ft 27 kts 256°
2026-05-04 11:37 59.65499 17.93060 110 ft 27 kts 255°
2026-05-04 11:37 59.65447 17.92761 111 ft 11 kts 242°
2026-05-04 11:37 59.65389 17.92678 112 ft 10 kts 171°
2026-05-04 11:38 59.65331 17.92736 112 ft 9 kts 151°
2026-05-04 11:38 59.65275 17.92796 112 ft 9 kts 152°
2026-05-04 11:38 59.65221 17.92826 112 ft 8 kts 184°
2026-05-04 11:38 59.65168 17.92808 110 ft 7 kts 190°
2026-05-04 11:39 59.65140 17.92798 112 ft 0 kts 190°